Weather History for Poplar Bluff, MO

Change the Weather History Date:

Thursday, November 22, 2012

  Actual Average Record
Temperature  
Mean Temperature 50 °F -  
Max Temperature 64 °F 54 °F 78 °F (1931)
Min Temperature 37 °F 35 °F 10 °F (1964)
Degree Days  
Heating Degree Days 14    
Moisture  
Dew Point 43 °F    
Average Humidity 83    
Maximum Humidity 97    
Minimum Humidity 54    
Precipitation  
Precipitation 0.00 in - - ()
Sea Level Pressure  
Sea Level Pressure 30.14 in    
Wind  
Wind Speed 2 mph (SSW)    
Max Wind Speed 17 mph    
Max Gust Speed 24 mph    
Visibility 4 miles    
Events Fog , Rain    
Averages and records for this station are not official NWS values.
T = Trace of Precipitation, MM = Missing Value Source: NWS Daily Summary

Daily Weather History Graph

Daily Weather History Graph

Search for Another Location

Airport:

Trip Planner

Search our weather history database for the weather conditions in past years. The results will help you decide how hot, cold, wet, or windy it might be!

Date:

Astronomy

Nov. 22, 2012 Rise Set
Actual Time 6:47 AM CST 4:47 PM CST
Civil Twilight 6:19 AM CST 5:15 PM CST
Nautical Twilight 5:47 AM CST 5:47 PM CST
Astronomical Twilight 5:16 AM CST 6:18 PM CST
Moon 1:26 PM CST (11/22) 1:14 AM CST (11/22)
Length of Visible Light 10h 56m
Length of Day
10h 00m
Waxing Gibbous, 71% of the Moon is Illuminated
Nov 22
Waxing Gibbous
Nov 28
Full
Dec 6
Last Quarter
Dec 13
New
Dec 19
First Quarter

Hourly Weather History & Observations

Time (CST) Temp. Dew Point Humidity Pressure Visibility Wind Dir Wind Speed Gust Speed Precip Events Conditions
12:16 AM 42.8 °F 39.2 °F 87% 30.19 in 2.5 mi Calm Calm - N/A   Clear
12:24 AM 41.0 °F 39.2 °F 93% 30.18 in 4.0 mi Calm Calm - N/A   Scattered Clouds
12:27 AM 41.0 °F 39.2 °F 93% 30.18 in 1.8 mi Calm Calm - N/A   Mostly Cloudy
12:34 AM 41.0 °F 39.2 °F 93% 30.18 in 0.8 mi Calm Calm - N/A   Mist
12:53 AM 39.0 °F 37.0 °F 93% 30.19 in 0.5 mi Calm Calm - N/A Fog Fog
1:02 AM 39.2 °F 37.4 °F 93% 30.18 in 2.0 mi Calm Calm - N/A   Overcast
1:08 AM 39.2 °F 37.4 °F 93% 30.18 in 0.8 mi Calm Calm - N/A   Mist
1:18 AM 39.2 °F 37.4 °F 93% 30.18 in 2.0 mi Calm Calm - N/A   Mostly Cloudy
1:31 AM 39.2 °F 37.4 °F 93% 30.18 in 1.5 mi Calm Calm - N/A   Overcast
1:44 AM 39.2 °F 37.4 °F 93% 30.18 in 0.2 mi Calm Calm - N/A Fog Fog
1:53 AM 37.9 °F 36.0 °F 93% 30.19 in 0.2 mi Calm Calm - N/A Fog Fog
2:05 AM 37.4 °F 35.6 °F 93% 30.18 in 0.2 mi Calm Calm - N/A Fog Fog
2:53 AM 37.9 °F 36.0 °F 93% 30.19 in 0.2 mi Calm Calm - N/A Fog Fog
3:53 AM 37.9 °F 36.0 °F 93% 30.18 in 0.2 mi Calm Calm - N/A Fog Fog
4:53 AM 37.0 °F 36.0 °F 96% 30.18 in 0.2 mi Calm Calm - N/A Fog Fog
5:53 AM 37.0 °F 36.0 °F 96% 30.19 in 0.2 mi Calm Calm - 0.00 in Fog Fog
6:53 AM 37.0 °F 36.0 °F 96% 30.19 in 0.2 mi Calm Calm - N/A Fog Fog
7:53 AM 37.9 °F 36.0 °F 93% 30.18 in 0.2 mi Calm Calm - N/A Fog Fog
8:53 AM 43.0 °F 42.1 °F 97% 30.18 in 0.2 mi Calm Calm - N/A Fog Fog
9:17 AM 48.2 °F 46.4 °F 93% 30.17 in 1.0 mi South 5.8 mph - N/A   Mist
9:23 AM 48.2 °F 46.4 °F 93% 30.17 in 2.0 mi South 6.9 mph - N/A   Scattered Clouds
9:38 AM 50.0 °F 46.4 °F 87% 30.17 in 3.0 mi SSW 5.8 mph - N/A   Clear
9:53 AM 53.1 °F 48.9 °F 86% 30.18 in 4.0 mi SSW 5.8 mph - N/A   Clear
10:53 AM 59.0 °F 50.0 °F 72% 30.17 in 6.0 mi SSW 8.1 mph - N/A   Haze
11:53 AM 61.0 °F 50.0 °F 67% 30.13 in 7.0 mi SW 6.9 mph - N/A   Clear
12:53 PM 64.0 °F 48.0 °F 56% 30.09 in 10.0 mi SSW 15.0 mph - N/A   Clear
1:53 PM 64.9 °F 48.0 °F 54% 30.08 in 10.0 mi SSW 12.7 mph - N/A   Clear
2:53 PM 64.9 °F 48.0 °F 54% 30.06 in 10.0 mi SSW 17.3 mph 24.2 mph N/A   Clear
3:53 PM 64.0 °F 48.9 °F 58% 30.05 in 10.0 mi SSW 13.8 mph - N/A   Clear
4:53 PM 62.1 °F 48.9 °F 62% 30.05 in 10.0 mi SSW 9.2 mph - N/A   Clear
5:53 PM 60.1 °F 48.9 °F 67% 30.06 in 10.0 mi SSW 8.1 mph - N/A   Clear
6:53 PM 57.0 °F 48.0 °F 72% 30.06 in 10.0 mi South 5.8 mph - N/A   Clear
7:53 PM 55.9 °F 48.0 °F 75% 30.06 in 10.0 mi SSW 6.9 mph - N/A   Clear
8:53 PM 55.0 °F 46.9 °F 74% 30.08 in 10.0 mi Calm Calm - N/A   Clear
9:53 PM 54.0 °F 46.9 °F 77% 30.10 in 10.0 mi SSW 4.6 mph - N/A   Mostly Cloudy
10:53 PM 57.0 °F 48.0 °F 72% 30.09 in 10.0 mi SSW 3.5 mph - N/A   Overcast
11:53 PM 57.9 °F 48.0 °F 70% 30.10 in 10.0 mi West 3.5 mph - 0.00 in Rain Light Rain